| time (UTC) | temp F | wind direction | speed knots | gust knots | rain 1hr in | rain 24hr in | rain mn in | humidity % | barometer mb |
| 20260510153627 | 70 | 340 | 1.7 | 3.5 | 0.00 | 0.00 | 0.00 | 54 | 1018.6 |
| 20260510153123 | 69 | 310 | 1.7 | 3.5 | 0.00 | 0.00 | 0.00 | 58 | 1018.5 |
| 20260510152620 | 69 | 326 | 1.7 | 2.6 | 0.00 | 0.00 | 0.00 | 57 | 1018.7 |
| 20260510152116 | 69 | 301 | 1.7 | 2.6 | 0.00 | 0.00 | 0.00 | 56 | 1018.7 |
| 20260510151613 | 68 | 292 | 1.7 | 3.5 | 0.00 | 0.00 | 0.00 | 60 | 1018.5 |
| 20260510151112 | 68 | 288 | 1.7 | 5.2 | 0.00 | 0.00 | 0.00 | 60 | 1018.6 |
| 20260510150611 | 68 | 251 | 1.7 | 2.6 | 0.00 | 0.00 | 0.00 | 62 | 1018.5 |
| 20260510150108 | 67 | 81 | 1.7 | 5.2 | 0.00 | 0.00 | 0.00 | 60 | 1018.7 |
| 20260510145604 | 66 | 255 | 0.9 | 1.7 | 0.00 | 0.00 | 0.00 | 63 | 1018.6 |
| 20260510145101 | 65 | 156 | 1.7 | 2.6 | 0.00 | 0.00 | 0.00 | 66 | 1018.4 |
| 20260510144557 | 65 | 131 | 1.7 | 2.6 | 0.00 | 0.00 | 0.00 | 66 | 1018.4 |
| 20260510144053 | 64 | 291 | 1.7 | 2.6 | 0.00 | 0.00 | 0.00 | 69 | 1018.4 |
| 20260510143548 | 64 | 303 | 1.7 | 2.6 | 0.00 | 0.00 | 0.00 | 70 | 1018.4 |
| 20260510143045 | 64 | 314 | 1.7 | 2.6 | 0.00 | 0.00 | 0.00 | 69 | 1018.5 |
| 20260510142542 | 63 | 37 | 0.9 | 2.6 | 0.00 | 0.00 | 0.00 | 69 | 1018.4 |
| 20260510142039 | 63 | 234 | 0.0 | 1.7 | 0.00 | 0.00 | 0.00 | 71 | 1018.4 |
| 20260510141535 | 63 | 301 | 0.9 | 3.5 | 0.00 | 0.00 | 0.00 | 71 | 1018.4 |
| 20260510141033 | 62 | 286 | 0.0 | 1.7 | 0.00 | 0.00 | 0.00 | 73 | 1018.5 |
| 20260510140529 | 62 | 99 | 0.0 | 0.9 | 0.00 | 0.00 | 0.00 | 73 | 1018.6 |
| 20260510140029 | 61 | 301 | 0.9 | 2.6 | 0.00 | 0.00 | 0.00 | 75 | 1018.4 |
| 20260510135525 | 61 | 206 | 0.0 | 0.9 | 0.00 | 0.00 | 0.00 | 75 | 1018.7 |
| 20260510135021 | 60 | 87 | 0.9 | 1.7 | 0.00 | 0.00 | 0.00 | 75 | 1018.5 |
| 20260510134518 | 60 | 124 | 0.0 | 2.6 | 0.00 | 0.00 | 0.00 | 76 | 1018.6 |
| 20260510134015 | 59 | 17 | 0.0 | 0.9 | 0.00 | 0.00 | 0.00 | 78 | 1018.6 |
| 20260510133511 | 59 | 337 | 0.0 | 0.9 | 0.00 | 0.00 | 0.00 | 78 | 1018.6 |
| 20260510133007 | 58 | 301 | 0.0 | 0.9 | 0.00 | 0.00 | 0.00 | 80 | 1018.6 |
| 20260510132504 | 58 | 301 | 0.9 | 0.9 | 0.00 | 0.00 | 0.00 | 81 | 1018.6 |
| 20260510132001 | 58 | 99 | 0.0 | 1.7 | 0.00 | 0.00 | 0.00 | 81 | 1018.6 |
| 20260510131459 | 57 | 243 | 0.0 | 1.7 | 0.00 | 0.00 | 0.00 | 81 | 1018.5 |
| 20260510130955 | 57 | 98 | 0.9 | 2.6 | 0.00 | 0.00 | 0.00 | 83 | 1018.6 |
| 20260510130452 | 57 | 132 | 0.0 | 0.9 | 0.00 | 0.00 | 0.00 | 84 | 1018.3 |
| 20260510125949 | 56 | 75 | 0.9 | 2.6 | 0.00 | 0.00 | 0.00 | 84 | 1018.4 |
| 20260510125445 | 56 | 320 | 1.7 | 2.6 | 0.00 | 0.00 | 0.00 | 83 | 1018.6 |
| 20260510124942 | 56 | 78 | 0.0 | 2.6 | 0.00 | 0.00 | 0.00 | 85 | 1018.4 |
| 20260510124438 | 55 | 40 | 0.0 | 0.0 | 0.00 | 0.00 | 0.00 | 88 | 1018.3 |
| 20260510123935 | 54 | 42 | 0.0 | 0.9 | 0.00 | 0.00 | 0.00 | 89 | 1018.3 |
| 20260510123431 | 53 | 73 | 0.9 | 0.9 | 0.00 | 0.00 | 0.00 | 92 | 1018.3 |
| 20260510122927 | 51 | 152 | 0.0 | 0.0 | 0.00 | 0.00 | 0.00 | 95 | 1018.2 |
| 20260510122427 | 50 | 299 | 0.0 | 0.0 | 0.00 | 0.00 | 0.00 | 96 | 1018.1 |
| 20260510121924 | 48 | 293 | 0.0 | 0.0 | 0.00 | 0.00 | 0.00 | 98 | 1018.0 |
| 20260510121422 | 47 | 293 | 0.0 | 0.0 | 0.00 | 0.00 | 0.00 | 98 | 1017.9 |
| 20260510120919 | 47 | 293 | 0.0 | 0.0 | 0.00 | 0.00 | 0.00 | 99 | 1017.9 |
| 20260510120416 | 46 | 293 | 0.0 | 0.0 | 0.00 | 0.00 | 0.00 | 99 | 1017.9 |
| 20260510115912 | 46 | 293 | 0.0 | 0.0 | 0.00 | 0.00 | 0.00 | 99 | 1018.2 |
| 20260510115409 | 46 | 293 | 0.0 | 0.0 | 0.00 | 0.00 | 0.00 | 99 | 1018.1 |
| 20260510114904 | 45 | 293 | 0.0 | 0.0 | 0.00 | 0.00 | 0.00 | 99 | 1018.1 |
| 20260510114402 | 44 | 293 | 0.0 | 0.9 | 0.00 | 0.00 | 0.00 | 99 | 1017.8 |
| 20260510113857 | 42 | 293 | 0.0 | 0.0 | 0.00 | 0.00 | 0.00 | 99 | 1017.8 |
| 20260510113353 | 41 | 293 | 0.0 | 0.0 | 0.00 | 0.00 | 0.00 | 99 | 1018.0 |
| 20260510112850 | 41 | 293 | 0.0 | 0.0 | 0.00 | 0.00 | 0.00 | 99 | 1017.8 |
| 20260510112347 | 40 | 293 | 0.0 | 0.0 | 0.00 | 0.00 | 0.00 | 99 | 1017.8 |
| 20260510111843 | 40 | 293 | 0.0 | 0.0 | 0.00 | 0.00 | 0.00 | 99 | 1017.5 |
| 20260510111340 | 40 | 293 | 0.0 | 0.0 | 0.00 | 0.00 | 0.00 | 99 | 1017.5 |
| 20260510110839 | 39 | 293 | 0.0 | 0.0 | 0.00 | 0.00 | 0.00 | 99 | 1017.4 |
| 20260510110337 | 39 | 293 | 0.0 | 0.0 | 0.00 | 0.00 | 0.00 | 99 | 1017.2 |
| 20260510105833 | 39 | 293 | 0.0 | 0.0 | 0.00 | 0.00 | 0.00 | 99 | 1017.3 |
| 20260510105333 | 39 | 293 | 0.0 | 0.0 | 0.00 | 0.00 | 0.00 | 99 | 1017.3 |
| 20260510104829 | 39 | 293 | 0.0 | 0.0 | 0.00 | 0.00 | 0.00 | 99 | 1017.1 |
| 20260510104327 | 39 | 293 | 0.0 | 0.0 | 0.00 | 0.00 | 0.00 | 99 | 1017.3 |
| 20260510103823 | 39 | 293 | 0.0 | 0.0 | 0.00 | 0.00 | 0.00 | 99 | 1017.1 |
| 20260510103320 | 39 | 293 | 0.0 | 0.0 | 0.00 | 0.00 | 0.00 | 99 | 1017.0 |
| 20260510102815 | 39 | 293 | 0.0 | 0.0 | 0.00 | 0.00 | 0.00 | 99 | 1017.2 |
| 20260510102311 | 39 | 293 | 0.0 | 0.0 | 0.00 | 0.00 | 0.00 | 98 | 1016.8 |
| 20260510101808 | 39 | 293 | 0.0 | 0.0 | 0.00 | 0.00 | 0.00 | 98 | 1017.1 |
| 20260510101307 | 39 | 293 | 0.0 | 0.9 | 0.00 | 0.00 | 0.00 | 98 | 1016.8 |
| 20260510100802 | 39 | 293 | 0.0 | 0.0 | 0.00 | 0.00 | 0.00 | 98 | 1016.8 |
| 20260510100300 | 39 | 293 | 0.0 | 0.0 | 0.00 | 0.00 | 0.00 | 98 | 1016.8 |
| 20260510095755 | 39 | 293 | 0.0 | 0.0 | 0.00 | 0.00 | 0.00 | 98 | 1016.9 |
| 20260510095251 | 39 | 293 | 0.0 | 0.0 | 0.00 | 0.00 | 0.00 | 98 | 1016.7 |
| 20260510094750 | 38 | 293 | 0.0 | 0.0 | 0.00 | 0.00 | 0.00 | 98 | 1016.8 |
| 20260510094245 | 38 | 293 | 0.0 | 0.0 | 0.00 | 0.00 | 0.00 | 98 | 1016.7 |
| 20260510093742 | 38 | 293 | 0.0 | 0.0 | 0.00 | 0.00 | 0.00 | 98 | 1016.5 |
| 20260510093239 | 39 | 293 | 0.0 | 0.9 | 0.00 | 0.00 | 0.00 | 98 | 1016.7 |
| 20260510092735 | 39 | 293 | 0.0 | 0.0 | 0.00 | 0.00 | 0.00 | 98 | 1016.8 |
| 20260510092231 | 39 | 293 | 0.0 | 0.0 | 0.00 | 0.00 | 0.00 | 98 | 1016.5 |
| 20260510091727 | 39 | 293 | 0.0 | 0.0 | 0.00 | 0.00 | 0.00 | 98 | 1016.5 |
| 20260510091224 | 39 | 293 | 0.0 | 0.0 | 0.00 | 0.00 | 0.00 | 98 | 1016.5 |
| 20260510090720 | 39 | 293 | 0.0 | 0.0 | 0.00 | 0.00 | 0.00 | 98 | 1016.4 |
| 20260510090217 | 39 | 293 | 0.0 | 0.0 | 0.00 | 0.00 | 0.00 | 98 | 1016.2 |
| 20260510085712 | 39 | 293 | 0.0 | 0.0 | 0.00 | 0.00 | 0.00 | 98 | 1016.4 |
| 20260510085208 | 39 | 293 | 0.0 | 0.0 | 0.00 | 0.00 | 0.00 | 98 | 1016.5 |
| 20260510084704 | 39 | 293 | 0.0 | 0.0 | 0.00 | 0.00 | 0.00 | 98 | 1016.3 |
| 20260510084201 | 39 | 293 | 0.0 | 0.0 | 0.00 | 0.00 | 0.00 | 98 | 1016.2 |
| 20260510083658 | 40 | 293 | 0.0 | 0.0 | 0.00 | 0.00 | 0.00 | 98 | 1016.1 |
| 20260510083155 | 40 | 293 | 0.0 | 0.0 | 0.00 | 0.00 | 0.00 | 98 | 1016.1 |
| 20260510082650 | 40 | 293 | 0.0 | 0.0 | 0.00 | 0.00 | 0.00 | 98 | 1015.9 |
| 20260510082146 | 40 | 293 | 0.0 | 0.0 | 0.00 | 0.00 | 0.00 | 98 | 1015.8 |
| 20260510081641 | 40 | 293 | 0.0 | 0.0 | 0.00 | 0.00 | 0.00 | 98 | 1015.9 |
| 20260510081137 | 39 | 293 | 0.0 | 0.0 | 0.00 | 0.00 | 0.00 | 98 | 1015.8 |
| 20260510080636 | 39 | 293 | 0.0 | 0.0 | 0.00 | 0.00 | 0.00 | 97 | 1015.9 |
| 20260510080133 | 40 | 293 | 0.0 | 0.0 | 0.00 | 0.00 | 0.00 | 98 | 1015.8 |
| 20260510075631 | 40 | 293 | 0.0 | 0.0 | 0.00 | 0.00 | 0.00 | 98 | 1015.8 |
| 20260510075128 | 40 | 293 | 0.0 | 0.0 | 0.00 | 0.00 | 0.00 | 98 | 1015.8 |
| 20260510074625 | 40 | 293 | 0.0 | 0.0 | 0.00 | 0.00 | 0.00 | 98 | 1015.8 |
| 20260510074120 | 40 | 293 | 0.0 | 0.0 | 0.00 | 0.00 | 0.00 | 97 | 1015.7 |
| 20260510073616 | 40 | 293 | 0.0 | 0.0 | 0.00 | 0.00 | 0.00 | 97 | 1015.7 |
| 20260510073114 | 40 | 293 | 0.0 | 0.0 | 0.00 | 0.00 | 0.00 | 97 | 1015.5 |
| 20260510072610 | 40 | 293 | 0.0 | 0.0 | 0.00 | 0.00 | 0.00 | 97 | 1015.7 |
| 20260510072106 | 40 | 293 | 0.0 | 0.0 | 0.00 | 0.00 | 0.00 | 97 | 1015.7 |
| 20260510071602 | 41 | 293 | 0.0 | 0.0 | 0.00 | 0.00 | 0.00 | 97 | 1015.8 |
| 20260510071100 | 41 | 293 | 0.0 | 0.0 | 0.00 | 0.00 | 0.00 | 97 | 1015.6 |
| 20260510070557 | 42 | 293 | 0.0 | 0.0 | 0.00 | 0.00 | 0.00 | 98 | 1015.7 |
| 20260510070054 | 41 | 293 | 0.0 | 0.0 | 0.00 | 0.00 | 0.00 | 97 | 1015.7 |
| 20260510065550 | 41 | 293 | 0.0 | 0.0 | 0.00 | 0.00 | 0.00 | 97 | 1015.5 |
| 20260510065046 | 40 | 293 | 0.0 | 0.0 | 0.00 | 0.00 | 0.00 | 96 | 1015.5 |
| 20260510064543 | 40 | 293 | 0.0 | 0.0 | 0.00 | 0.00 | 0.00 | 96 | 1015.6 |
| 20260510064040 | 41 | 293 | 0.0 | 0.0 | 0.00 | 0.00 | 0.00 | 96 | 1015.6 |
| 20260510063537 | 41 | 293 | 0.0 | 0.0 | 0.00 | 0.00 | 0.00 | 96 | 1015.6 |
| 20260510063034 | 42 | 293 | 0.0 | 0.0 | 0.00 | 0.00 | 0.00 | 97 | 1015.5 |
| 20260510062530 | 42 | 293 | 0.0 | 0.0 | 0.00 | 0.00 | 0.00 | 97 | 1015.4 |
| 20260510062025 | 42 | 293 | 0.0 | 0.0 | 0.00 | 0.00 | 0.00 | 97 | 1015.3 |
| 20260510061522 | 42 | 293 | 0.0 | 0.0 | 0.00 | 0.00 | 0.00 | 97 | 1015.3 |
| 20260510061018 | 42 | 293 | 0.0 | 0.0 | 0.00 | 0.00 | 0.00 | 97 | 1015.3 |
| 20260510060515 | 42 | 293 | 0.0 | 0.0 | 0.00 | 0.00 | 0.00 | 97 | 1015.4 |
| 20260510060011 | 42 | 293 | 0.0 | 0.0 | 0.00 | 0.00 | 0.00 | 96 | 1015.4 |
| 20260510055507 | 42 | 293 | 0.0 | 0.0 | 0.00 | 0.00 | 0.00 | 96 | 1015.5 |
| 20260510055005 | 42 | 293 | 0.0 | 0.0 | 0.00 | 0.00 | 0.00 | 95 | 1015.5 |
| 20260510054501 | 42 | 293 | 0.0 | 0.0 | 0.00 | 0.00 | 0.00 | 95 | 1015.5 |
| 20260510053956 | 43 | 293 | 0.0 | 0.0 | 0.00 | 0.00 | 0.00 | 96 | 1015.5 |
| 20260510053451 | 44 | 293 | 0.0 | 0.0 | 0.00 | 0.00 | 0.00 | 96 | 1015.5 |
| 20260510052947 | 44 | 293 | 0.0 | 0.0 | 0.00 | 0.00 | 0.00 | 96 | 1015.7 |
| 20260510052443 | 43 | 293 | 0.0 | 0.0 | 0.00 | 0.00 | 0.00 | 95 | 1015.5 |
| 20260510051940 | 43 | 293 | 0.0 | 0.0 | 0.00 | 0.00 | 0.00 | 95 | 1015.5 |
| 20260510051436 | 43 | 293 | 0.0 | 0.0 | 0.00 | 0.00 | 0.00 | 94 | 1015.7 |
| 20260510050933 | 43 | 293 | 0.0 | 0.0 | 0.00 | 0.00 | 0.00 | 94 | 1015.9 |
| 20260510050429 | 44 | 293 | 0.0 | 0.0 | 0.00 | 0.00 | 0.00 | 95 | 1015.9 |
| 20260510045927 | 44 | 293 | 0.0 | 0.0 | 0.00 | 0.00 | 0.00 | 95 | 1015.8 |
| 20260510045424 | 44 | 293 | 0.0 | 0.0 | 0.00 | 0.00 | 0.00 | 95 | 1015.6 |
| 20260510044920 | 44 | 293 | 0.0 | 0.0 | 0.00 | 0.00 | 0.00 | 94 | 1015.8 |
| 20260510044417 | 44 | 293 | 0.0 | 0.0 | 0.00 | 0.00 | 0.00 | 94 | 1015.8 |
| 20260510043914 | 44 | 293 | 0.0 | 0.0 | 0.00 | 0.00 | 0.00 | 94 | 1015.8 |
| 20260510043410 | 44 | 293 | 0.0 | 0.0 | 0.00 | 0.00 | 0.00 | 93 | 1015.8 |
| 20260510042908 | 45 | 293 | 0.0 | 0.0 | 0.00 | 0.00 | 0.00 | 93 | 1015.7 |
| 20260510042404 | 45 | 293 | 0.0 | 0.0 | 0.00 | 0.00 | 0.00 | 93 | 1015.6 |
| 20260510041900 | 45 | 293 | 0.0 | 0.0 | 0.00 | 0.00 | 0.00 | 92 | 1015.7 |
| 20260510041357 | 45 | 293 | 0.0 | 0.0 | 0.00 | 0.00 | 0.00 | 91 | 1015.6 |
| 20260510040855 | 45 | 293 | 0.0 | 0.0 | 0.00 | 0.00 | 0.00 | 91 | 1015.7 |
| 20260510040352 | 46 | 293 | 0.0 | 0.0 | 0.00 | 0.00 | 0.00 | 92 | 1015.7 |
| 20260510035847 | 46 | 293 | 0.0 | 0.0 | 0.00 | 0.00 | 0.00 | 92 | 1015.8 |
| 20260510035343 | 46 | 293 | 0.0 | 0.0 | 0.00 | 0.00 | 0.00 | 91 | 1015.8 |
| 20260510034839 | 46 | 293 | 0.0 | 0.0 | 0.00 | 0.00 | 0.00 | 91 | 1015.8 |
| 20260510034337 | 47 | 293 | 0.0 | 0.0 | 0.00 | 0.00 | 0.00 | 91 | 1015.8 |
| 20260510033833 | 47 | 293 | 0.0 | 0.0 | 0.00 | 0.00 | 0.00 | 91 | 1015.8 |
| 20260510033330 | 47 | 293 | 0.0 | 0.0 | 0.00 | 0.00 | 0.00 | 91 | 1015.8 |
| 20260510032827 | 47 | 293 | 0.0 | 0.0 | 0.00 | 0.00 | 0.00 | 91 | 1015.6 |
| 20260510032323 | 47 | 293 | 0.0 | 0.0 | 0.00 | 0.00 | 0.00 | 91 | 1015.9 |
| 20260510031819 | 47 | 293 | 0.0 | 0.9 | 0.00 | 0.00 | 0.00 | 90 | 1015.7 |
| 20260510031315 | 47 | 293 | 0.0 | 0.0 | 0.00 | 0.00 | 0.00 | 89 | 1015.7 |
| 20260510030815 | 48 | 293 | 0.0 | 0.0 | 0.00 | 0.00 | 0.00 | 89 | 1015.7 |
| 20260510030311 | 48 | 293 | 0.0 | 0.0 | 0.00 | 0.00 | 0.00 | 89 | 1015.5 |
| 20260510025809 | 48 | 293 | 0.0 | 0.0 | 0.00 | 0.00 | 0.00 | 88 | 1015.7 |
| 20260510025306 | 48 | 293 | 0.0 | 0.0 | 0.00 | 0.00 | 0.00 | 88 | 1015.6 |
| 20260510024803 | 49 | 293 | 0.0 | 0.0 | 0.00 | 0.00 | 0.00 | 88 | 1015.6 |
| 20260510024300 | 49 | 293 | 0.0 | 0.0 | 0.00 | 0.00 | 0.00 | 88 | 1015.5 |
| 20260510023755 | 49 | 293 | 0.0 | 0.0 | 0.00 | 0.00 | 0.00 | 88 | 1015.6 |
| 20260510023247 | 49 | 293 | 0.0 | 0.0 | 0.00 | 0.00 | 0.00 | 87 | 1015.7 |
| 20260510022744 | 49 | 293 | 0.0 | 0.0 | 0.00 | 0.00 | 0.00 | 87 | 1015.3 |
| 20260510022243 | 49 | 293 | 0.0 | 0.0 | 0.00 | 0.00 | 0.00 | 87 | 1015.1 |
| 20260510021742 | 49 | 293 | 0.0 | 0.0 | 0.00 | 0.00 | 0.00 | 85 | 1015.4 |
| 20260510021241 | 50 | 293 | 0.0 | 0.0 | 0.00 | 0.00 | 0.00 | 84 | 1015.2 |
| 20260510020737 | 51 | 293 | 0.0 | 0.0 | 0.00 | 0.00 | 0.00 | 84 | 1015.0 |
| 20260510020236 | 52 | 293 | 0.0 | 0.0 | 0.00 | 0.00 | 0.00 | 83 | 1015.0 |
| 20260510015733 | 52 | 293 | 0.0 | 0.0 | 0.00 | 0.00 | 0.00 | 82 | 1014.9 |
| 20260510015229 | 51 | 293 | 0.0 | 0.0 | 0.00 | 0.00 | 0.00 | 85 | 1015.0 |
| 20260510014724 | 52 | 293 | 0.0 | 0.0 | 0.00 | 0.00 | 0.00 | 85 | 1014.8 |
| 20260510014222 | 52 | 293 | 0.0 | 0.0 | 0.00 | 0.00 | 0.00 | 84 | 1014.6 |
| 20260510013717 | 52 | 293 | 0.0 | 0.0 | 0.00 | 0.00 | 0.00 | 82 | 1014.4 |
| 20260510013213 | 52 | 293 | 0.0 | 0.0 | 0.00 | 0.00 | 0.00 | 84 | 1014.3 |
| 20260510012708 | 53 | 293 | 0.0 | 0.0 | 0.00 | 0.00 | 0.00 | 82 | 1014.3 |
| 20260510012203 | 53 | 293 | 0.0 | 0.0 | 0.00 | 0.00 | 0.00 | 81 | 1014.0 |
| 20260510011658 | 54 | 293 | 0.0 | 0.0 | 0.00 | 0.00 | 0.00 | 80 | 1014.2 |
| 20260510011154 | 54 | 293 | 0.0 | 0.0 | 0.00 | 0.00 | 0.00 | 78 | 1014.1 |
| 20260510010651 | 54 | 293 | 0.0 | 0.0 | 0.00 | 0.00 | 0.00 | 77 | 1014.2 |
| 20260510010148 | 55 | 293 | 0.0 | 0.0 | 0.00 | 0.00 | 0.00 | 76 | 1014.0 |
| 20260510005644 | 55 | 293 | 0.0 | 0.0 | 0.00 | 0.00 | 0.00 | 74 | 1013.7 |
| 20260510005141 | 57 | 293 | 0.0 | 0.0 | 0.00 | 0.00 | 0.00 | 73 | 1014.1 |
| 20260510004639 | 58 | 293 | 0.0 | 0.0 | 0.00 | 0.00 | 0.00 | 69 | 1013.8 |
| 20260510004137 | 58 | 293 | 0.0 | 0.0 | 0.00 | 0.00 | 0.00 | 66 | 1014.0 |
| 20260510003634 | 59 | 293 | 0.0 | 0.0 | 0.00 | 0.00 | 0.00 | 67 | 1013.9 |
| 20260510003129 | 59 | 293 | 0.0 | 0.0 | 0.00 | 0.00 | 0.00 | 65 | 1014.1 |
| 20260510002629 | 60 | 293 | 0.0 | 0.0 | 0.00 | 0.00 | 0.00 | 61 | 1013.9 |
| 20260510002127 | 60 | 293 | 0.0 | 0.9 | 0.00 | 0.00 | 0.00 | 61 | 1014.0 |
| 20260510001623 | 61 | 293 | 0.0 | 0.0 | 0.00 | 0.00 | 0.00 | 60 | 1013.7 |
| 20260510001122 | 62 | 293 | 0.0 | 0.0 | 0.00 | 0.00 | 0.00 | 58 | 1013.7 |
| 20260510000622 | 62 | 293 | 0.0 | 0.0 | 0.00 | 0.00 | 0.00 | 58 | 1013.6 |
| 20260510000120 | 63 | 293 | 0.0 | 0.0 | 0.00 | 0.00 | 0.00 | 57 | 1013.3 |
| 20260509235616 | 63 | 293 | 0.0 | 0.9 | 0.00 | 0.00 | 0.00 | 55 | 1013.2 |
| 20260509235113 | 64 | 293 | 0.0 | 0.9 | 0.00 | 0.00 | 0.00 | 54 | 1013.3 |
| 20260509234609 | 64 | 269 | 0.9 | 0.9 | 0.00 | 0.00 | 0.00 | 53 | 1013.3 |
| 20260509234107 | 65 | 269 | 0.9 | 0.9 | 0.00 | 0.00 | 0.00 | 54 | 1013.2 |
| 20260509233604 | 65 | 278 | 0.0 | 1.7 | 0.00 | 0.00 | 0.00 | 53 | 1012.9 |
| 20260509233101 | 66 | 290 | 0.0 | 1.7 | 0.00 | 0.00 | 0.00 | 52 | 1012.8 |
| 20260509232557 | 65 | 290 | 0.0 | 1.7 | 0.00 | 0.00 | 0.00 | 51 | 1012.7 |
| 20260509232055 | 66 | 297 | 0.9 | 0.9 | 0.00 | 0.00 | 0.00 | 51 | 1012.8 |
| 20260509231551 | 66 | 295 | 0.0 | 1.7 | 0.00 | 0.00 | 0.00 | 50 | 1013.1 |
| 20260509231049 | 66 | 273 | 1.7 | 2.6 | 0.00 | 0.00 | 0.00 | 50 | 1013.2 |
| 20260509230545 | 66 | 316 | 0.9 | 1.7 | 0.00 | 0.00 | 0.00 | 49 | 1012.8 |
| 20260509230043 | 66 | 293 | 0.9 | 1.7 | 0.00 | 0.00 | 0.00 | 51 | 1012.9 |
| 20260509225538 | 66 | 259 | 1.7 | 2.6 | 0.00 | 0.00 | 0.00 | 50 | 1013.1 |
| 20260509225033 | 67 | 286 | 1.7 | 3.5 | 0.00 | 0.00 | 0.00 | 49 | 1013.1 |
| 20260509224529 | 67 | 281 | 0.9 | 1.7 | 0.00 | 0.00 | 0.00 | 50 | 1012.8 |
| 20260509224026 | 68 | 296 | 1.7 | 2.6 | 0.00 | 0.00 | 0.00 | 48 | 1013.1 |
| 20260509223523 | 67 | 297 | 2.6 | 5.2 | 0.00 | 0.00 | 0.00 | 47 | 1013.3 |
| 20260509223021 | 66 | 292 | 0.9 | 1.7 | 0.00 | 0.00 | 0.00 | 51 | 1013.2 |
| 20260509222517 | 66 | 291 | 1.7 | 3.5 | 0.00 | 0.00 | 0.00 | 50 | 1013.2 |
| 20260509222012 | 67 | 332 | 0.9 | 3.5 | 0.00 | 0.00 | 0.00 | 48 | 1013.1 |
| 20260509221509 | 68 | 288 | 1.7 | 1.7 | 0.00 | 0.00 | 0.00 | 50 | 1013.2 |
| 20260509221005 | 68 | 308 | 1.7 | 2.6 | 0.00 | 0.00 | 0.00 | 48 | 1012.8 |
| 20260509220501 | 68 | 295 | 1.7 | 3.5 | 0.00 | 0.00 | 0.00 | 46 | 1012.9 |
| 20260509215957 | 67 | 288 | 1.7 | 3.5 | 0.00 | 0.00 | 0.00 | 49 | 1013.2 |
| 20260509215452 | 66 | 303 | 1.7 | 2.6 | 0.00 | 0.00 | 0.00 | 49 | 1012.9 |
| 20260509214950 | 67 | 303 | 1.7 | 2.6 | 0.00 | 0.00 | 0.00 | 49 | 1013.1 |
| 20260509214447 | 67 | 304 | 1.7 | 2.6 | 0.00 | 0.00 | 0.00 | 48 | 1012.9 |
| 20260509213943 | 68 | 303 | 0.9 | 2.6 | 0.00 | 0.00 | 0.00 | 47 | 1013.1 |
| 20260509213440 | 68 | 319 | 1.7 | 2.6 | 0.00 | 0.00 | 0.00 | 46 | 1012.5 |
| 20260509212937 | 68 | 319 | 1.7 | 2.6 | 0.00 | 0.00 | 0.00 | 48 | 1012.7 |
| 20260509212434 | 67 | 320 | 2.6 | 2.6 | 0.00 | 0.00 | 0.00 | 48 | 1012.7 |
| 20260509211930 | 67 | 286 | 2.6 | 3.5 | 0.00 | 0.00 | 0.00 | 49 | 1012.7 |
| 20260509211426 | 67 | 318 | 1.7 | 2.6 | 0.00 | 0.00 | 0.00 | 50 | 1012.5 |
| 20260509210923 | 67 | 300 | 0.9 | 3.5 | 0.00 | 0.00 | 0.00 | 49 | 1012.9 |
| 20260509210421 | 67 | 276 | 1.7 | 5.2 | 0.00 | 0.00 | 0.00 | 51 | 1012.7 |
| 20260509205921 | 67 | 282 | 0.9 | 3.5 | 0.00 | 0.00 | 0.00 | 49 | 1012.5 |
| 20260509205420 | 68 | 295 | 0.9 | 2.6 | 0.00 | 0.00 | 0.00 | 50 | 1012.4 |
| 20260509204917 | 68 | 302 | 0.9 | 2.6 | 0.00 | 0.00 | 0.00 | 47 | 1012.4 |
| 20260509204413 | 68 | 313 | 2.6 | 3.5 | 0.00 | 0.00 | 0.00 | 46 | 1012.5 |
| 20260509203910 | 68 | 285 | 1.7 | 6.1 | 0.00 | 0.00 | 0.00 | 47 | 1012.3 |
| 20260509203406 | 67 | 319 | 1.7 | 5.2 | 0.00 | 0.00 | 0.00 | 46 | 1012.3 |
| 20260509202904 | 67 | 298 | 1.7 | 3.5 | 0.00 | 0.00 | 0.00 | 47 | 1012.3 |
| 20260509202359 | 68 | 271 | 4.3 | 6.1 | 0.00 | 0.00 | 0.00 | 45 | 1012.3 |
| 20260509201854 | 69 | 303 | 5.2 | 8.7 | 0.00 | 0.00 | 0.00 | 44 | 1012.2 |
| 20260509201350 | 68 | 287 | 1.7 | 6.1 | 0.00 | 0.00 | 0.00 | 45 | 1012.0 |
| 20260509200847 | 70 | 299 | 5.2 | 7.8 | 0.00 | 0.00 | 0.00 | 42 | 1012.2 |
| 20260509200342 | 72 | 293 | 2.6 | 3.5 | 0.00 | 0.00 | 0.00 | 42 | 1012.0 |
| 20260509195839 | 71 | 299 | 1.7 | 6.1 | 0.00 | 0.00 | 0.00 | 42 | 1012.0 |
| 20260509195339 | 68 | 278 | 1.7 | 3.5 | 0.00 | 0.00 | 0.00 | 44 | 1012.3 |
| 20260509194839 | 67 | 352 | 0.9 | 1.7 | 0.00 | 0.00 | 0.00 | 45 | 1012.2 |
| 20260509194335 | 67 | 17 | 0.9 | 2.6 | 0.00 | 0.00 | 0.00 | 46 | 1012.2 |
| 20260509193832 | 70 | 286 | 2.6 | 6.1 | 0.00 | 0.00 | 0.00 | 43 | 1012.2 |
| 20260509193332 | 70 | 261 | 4.3 | 5.2 | 0.00 | 0.00 | 0.00 | 39 | 1011.9 |
| 20260509192829 | 68 | 284 | 6.1 | 7.0 | 0.00 | 0.00 | 0.00 | 44 | 1012.3 |
| 20260509192325 | 69 | 286 | 1.7 | 1.7 | 0.00 | 0.00 | 0.00 | 42 | 1012.0 |
| 20260509191820 | 71 | 306 | 1.7 | 3.5 | 0.00 | 0.00 | 0.00 | 39 | 1012.2 |
| 20260509191316 | 72 | 303 | 3.5 | 5.2 | 0.00 | 0.00 | 0.00 | 39 | 1012.3 |
| 20260509190812 | 71 | 326 | 1.7 | 3.5 | 0.00 | 0.00 | 0.00 | 39 | 1012.1 |
| 20260509190310 | 71 | 309 | 3.5 | 3.5 | 0.00 | 0.00 | 0.00 | 40 | 1012.2 |
| 20260509185807 | 68 | 291 | 2.6 | 5.2 | 0.00 | 0.00 | 0.00 | 43 | 1012.2 |
| 20260509185306 | 69 | 287 | 1.7 | 3.5 | 0.00 | 0.00 | 0.00 | 45 | 1011.9 |
| 20260509184800 | 71 | 314 | 4.3 | 7.0 | 0.00 | 0.00 | 0.00 | 41 | 1012.1 |
| 20260509184258 | 72 | 284 | 1.7 | 3.5 | 0.00 | 0.00 | 0.00 | 42 | 1012.3 |
| 20260509183754 | 68 | 286 | 1.7 | 3.5 | 0.00 | 0.00 | 0.00 | 43 | 1012.2 |
| 20260509183249 | 68 | 358 | 2.6 | 5.2 | 0.00 | 0.00 | 0.00 | 43 | 1012.2 |
| 20260509182745 | 68 | 359 | 1.7 | 2.6 | 0.00 | 0.00 | 0.00 | 45 | 1012.2 |
| 20260509182243 | 68 | 42 | 1.7 | 5.2 | 0.00 | 0.00 | 0.00 | 46 | 1012.4 |
| 20260509181740 | 69 | 318 | 1.7 | 3.5 | 0.00 | 0.00 | 0.00 | 45 | 1012.2 |
| 20260509181237 | 69 | 270 | 0.0 | 2.6 | 0.00 | 0.00 | 0.00 | 46 | 1012.2 |
| 20260509180734 | 68 | 311 | 0.9 | 5.2 | 0.00 | 0.00 | 0.00 | 48 | 1012.5 |
| 20260509180231 | 68 | 285 | 1.7 | 3.5 | 0.00 | 0.00 | 0.00 | 49 | 1012.4 |
| 20260509175727 | 67 | 295 | 0.9 | 5.2 | 0.00 | 0.00 | 0.00 | 48 | 1012.4 |
| 20260509175223 | 68 | 149 | 5.2 | 7.8 | 0.00 | 0.00 | 0.00 | 48 | 1012.4 |
| 20260509174719 | 67 | 307 | 1.7 | 3.5 | 0.00 | 0.00 | 0.00 | 49 | 1012.6 |
| 20260509174215 | 66 | 286 | 3.5 | 3.5 | 0.00 | 0.00 | 0.00 | 52 | 1012.5 |
| 20260509173711 | 66 | 307 | 1.7 | 5.2 | 0.00 | 0.00 | 0.00 | 50 | 1012.4 |
| 20260509173202 | 66 | 291 | 0.9 | 3.5 | 0.00 | 0.00 | 0.00 | 52 | 1012.5 |
| 20260509172658 | 67 | 279 | 1.7 | 1.7 | 0.00 | 0.00 | 0.00 | 50 | 1012.7 |
| 20260509172154 | 68 | 116 | 1.7 | 3.5 | 0.00 | 0.00 | 0.00 | 48 | 1012.6 |
| 20260509171650 | 69 | 304 | 3.5 | 5.2 | 0.00 | 0.00 | 0.00 | 52 | 1012.5 |
| 20260509171146 | 67 | 279 | 2.6 | 2.6 | 0.00 | 0.00 | 0.00 | 50 | 1012.6 |
| 20260509170643 | 66 | 27 | 1.7 | 3.5 | 0.00 | 0.00 | 0.00 | 51 | 1012.7 |
| 20260509170139 | 65 | 66 | 0.0 | 1.7 | 0.00 | 0.00 | 0.00 | 53 | 1012.8 |
| 20260509165638 | 65 | 141 | 0.9 | 1.7 | 0.00 | 0.00 | 0.00 | 51 | 1012.9 |
| 20260509165133 | 65 | 84 | 3.5 | 5.2 | 0.00 | 0.00 | 0.00 | 50 | 1012.9 |
| 20260509164630 | 68 | 287 | 1.7 | 3.5 | 0.00 | 0.00 | 0.00 | 52 | 1012.9 |
| 20260509164125 | 68 | 306 | 2.6 | 3.5 | 0.00 | 0.00 | 0.00 | 51 | 1012.9 |
| 20260509163623 | 69 | 280 | 3.5 | 7.0 | 0.00 | 0.00 | 0.00 | 51 | 1013.1 |
| 20260509163118 | 69 | 105 | 0.0 | 6.1 | 0.00 | 0.00 | 0.00 | 46 | 1013.1 |
| 20260509162616 | 69 | 309 | 3.5 | 3.5 | 0.00 | 0.00 | 0.00 | 46 | 1013.4 |
| 20260509162111 | 68 | 99 | 2.6 | 6.1 | 0.00 | 0.00 | 0.00 | 45 | 1013.3 |
| 20260509161602 | 66 | 305 | 1.7 | 3.5 | 0.00 | 0.00 | 0.00 | 51 | 1013.3 |
| 20260509161056 | 66 | 248 | 0.0 | 0.9 | 0.00 | 0.00 | 0.00 | 54 | 1013.2 |
| 20260509160552 | 67 | 288 | 4.3 | 6.1 | 0.00 | 0.00 | 0.00 | 53 | 1013.1 |
| 20260509160043 | 65 | 293 | 1.7 | 3.5 | 0.00 | 0.00 | 0.00 | 56 | 1013.1 |
| 20260509155539 | 67 | 318 | 1.7 | 2.6 | 0.00 | 0.00 | 0.00 | 53 | 1012.8 |
| 20260509155035 | 66 | 271 | 4.3 | 6.1 | 0.00 | 0.00 | 0.00 | 56 | 1012.8 |
| 20260509154532 | 66 | 232 | 0.0 | 1.7 | 0.00 | 0.00 | 0.00 | 55 | 1012.8 |
| 20260509154030 | 65 | 289 | 1.7 | 2.6 | 0.00 | 0.00 | 0.00 | 57 | 1012.8 |